Regional Weather Roundup
Issued by NWS Portland, ME

Current Version | Previous Version | Text Only | Print | Product List | Glossary Off
Versions: 1 2 3 4 5 6 7 8 9 10 11 12 13 14 15 16 17 18 19 20 21 22 23 24 25 26 27 28 29 30 31 32 33 34 35 36 37 38 39 40 41 42 43 44 45 46 47 48 49 50
000 ASUS41 KGYX 281605 RWRGYX WEATHER ROUNDUP FOR MAINE AND NEW HAMPSHIRE NATIONAL WEATHER SERVICE GRAY ME 1200 PM EDT THU MAY 28 2020 MEZ002-005-006-010-012-015-018-020-021-024-026-027-029-281700- MAINE CITY SKY/WX TMP DP RH WIND PRES REMARKS PORTLAND MOSUNNY 85 63 47 SW14G23 30.09F SANFORD MOSUNNY 83 64 52 SW13G21 30.12F BAR HARBOR CLOUDY 62 58 86 S17 30.12F WISCASSET MOSUNNY 76 62 62 SW9 30.11F ROCKLAND PTSUNNY 65 60 84 SW12 30.11F FRYEBURG MOSUNNY 84 63 49 VRB7 30.09F LEWISTONAUBURN MOSUNNY 81 66 60 SW10 30.09F AUGUSTA PTSUNNY 79 67 66 MISG 30.09F WATERVILLE PTSUNNY 75 66 73 VRB5 30.06F BANGOR PTSUNNY 72 62 71 S8 30.08F GREENVILLE N/A 81 66 60 SE7 30.05F MILLINOCKET MOSUNNY 82 65 56 S7 30.04F HOULTON MOSUNNY 80 65 59 S7 30.01F PRESQUE ISLE MOSUNNY 81 70 69 SE7 30.00F FRENCHVILLE MOSUNNY 82 67 60 S3 29.98F CARIBOU MOSUNNY 81 69 67 S6 29.98F $$ NHZ002-005-008-009-011-012-014-281700- NEW HAMPSHIRE CITY SKY/WX TMP DP RH WIND PRES REMARKS PORTSMOUTH PTSUNNY 83 63 50 SW15G22 30.12F ROCHESTER MOSUNNY 83 63 50 SW8 30.13F NASHUA CLOUDY 80 69 69 SW9 30.16F MANCHESTER PTSUNNY 83 64 52 SW13G22 30.13F CONCORD CLOUDY 82 60 47 W14G25 30.14F LACONIA MOSUNNY 81 64 56 SW14G20 30.13F PLYMOUTH PTSUNNY 80 62 54 CALM 30.11F BERLIN PTSUNNY 80 61 52 CALM 30.11F WHITEFIELD PTSUNNY 77 63 61 VRB6 30.12F JAFFREY CLOUDY 73 63 70 S10 30.19F KEENE CLOUDY 75 65 70 SW7 30.17S LEBANON MOSUNNY 83 63 50 SW9G17 30.11F MT WASHINGTON CLOUDY 61 55 82 W10 N/A $$ VTZ005-007-008-281700- VERMONT CITY SKY/WX TMP DP RH WIND PRES REMARKS ST JOHNSBURY N/A 77 64 64 MISG 30.09F MONTPELIER PTSUNNY 79 62 56 S14 30.15F BURLINGTON PTSUNNY 82 62 50 S17G24 30.06F $$ MAZ007-012-024-CTZ003-RIZ002-NYZ038-NYZ072-281700- SOUTHERN NEW ENGLAND AND NY CITY SKY/WX TMP DP RH WIND PRES REMARKS BOSTON CLOUDY 75 66 73 SW17G23 30.18F WORCESTER CLOUDY 71 65 81 S12 30.21F NANTUCKET SUNNY 66 59 78 SW13 30.26S PROVIDENCE CLOUDY 75 68 78 SW12G18 30.22S HARTFORD CLOUDY 77 66 68 SW14 30.18F ALBANY PTSUNNY 79 66 64 SE9 30.12F NEW YORK CITY CLOUDY 74 65 73 S13 30.17F $$ ANZ081-ANZ082-ANZ150-NHZ014-MEZ023>029-281700- COASTAL MARINE OBSERVATIONS STATION/POSITION TIME TEMP WIND PRES WAVE AIR SEA DIR/SP/G HT/PER (UTC) (F) (DEG/KT/KT) (MB) (FT/S) MOUNT DESERT ROC 1500 200/ 21/ 23 1020.5F ISLE OF SHOALS 1500 65 210/ 13/ 15 1020.7F JEFFREYS LEDGE 1508 53 N/A 3/ 6 GEORGES BANK BUO 1550 45 1027.3F 2/ 6 $$ .............KEY.............. WCI - WIND CHILL TC - TEMPERATURE IN CELSIUS VSB - VISIBILITY IN MILES HX - HEAT INDEX FAIR- INDICATES FEW OR NO CLOUDS BELOW 12,000 FT, WITH NO SIGNIFICANT WEATHER AND/OR OBSTRUCTIONS TO VISIBILITY.

USA.gov is the U.S. government's official web portal to all federal, state and local government web resources and services.